Content
SEND FEEDBACK

Daily
Averages
Monthly
Summary
Canada

MONTREAL, QUEBEC


Home > North America > Canada > Quebec
Elevation: 118 feet     Latitude: 45 28N     Longitude: 073 45W

WEATHER
 
SELECT A DAY
Number of Records: 200,724;   Date Range: 1/1/95 - 9/30/14
 
SHARE

PRINT THIS DATA

[ ← Previous Day ]
WEATHER ALMANAC - SEPTEMBER 14, 2013
[ Next Day → ]
[ °C ]   °F
Weather ElementAverageHighLow
Temperature53.8 °F59 °F (3:00 pm)50 °F (6:00 am)
Dewpoint47.2 °F50 °F (1:00 am)44.6 °F (7:00 pm)
Humidity78.2 %88 % (1:00 am)61 % (2:00 pm)
Barometer29.97 in30.04 in (9:00 pm)29.89 in (1:00 am)
Wind Speed8.4 mph15 mph (2:00 pm)
Wind Gust20.7 mph (2:00 pm)
Weather ElementAverage
Visibility15 mi
Wind DirectionWSW (258.9 °)

Weather ElementTotal
Precipitation---
Heating Degree Days10.5 (Base 65)
Growing Degree Days4.5 (Base 50)
Averaged from 27 records on September 14, 2013
WEATHER CONDITIONS BREAKOUT
WIND DIRECTION BREAKOUT
WEATHER BY HOUR - SEPTEMBER 14, 2013
[ °C ]   °F
Local TimeTemperatureDewpointHumidityBarometerVisibilityWind DirectionWind SpeedGust SpeedPrecipitationEventsConditions
1:00 AM53.6 °F50.0 °F88 %29.89 in15.0 miWNW (290°)6.9 mphOvercast
2:00 AM53.0 °F49.0 °F84 %29.90 in15.0 miWNW (290°)4.6 mphPartly Cloudy
2:00 AM53.6 °F50.0 °F88 %29.90 in15.0 miWNW (290°)3.5 mphOvercast
3:00 AM51.8 °F48.2 °F88 %29.90 in15.0 miWNW (300°)6.9 mphOvercast
4:00 AM51.8 °F48.2 °F88 %29.91 in15.0 miWest (280°)6.9 mphOvercast
5:00 AM51.8 °F48.2 °F88 %29.93 in15.0 miWNW (290°)8.1 mphOvercast
6:00 AM50.0 °F46.4 °F87 %29.94 in15.0 miWNW (300°)6.9 mphMostly Cloudy
7:00 AM50.0 °F46.4 °F87 %29.95 in15.0 miWest (270°)3.5 mphMostly Cloudy
8:00 AM51.0 °F47.0 °F83 %29.97 in15.0 miWSW (240°)5.8 mphMostly Cloudy
8:00 AM51.8 °F48.2 °F88 %29.97 in15.0 miWSW (250°)5.8 mphMostly Cloudy
9:00 AM51.8 °F48.2 °F88 %29.98 in15.0 miWest (260°)6.9 mphOvercast
10:00 AM51.8 °F46.4 °F82 %29.99 in15.0 miWSW (250°)8.1 mphOvercast
11:00 AM53.6 °F48.2 °F82 %29.99 in15.0 miSW (220°)11.5 mphOvercast
12:00 PM55.4 °F46.4 °F72 %29.99 in15.0 miWSW (240°)10.4 mphOvercast
1:00 PM55.4 °F46.4 °F72 %29.99 in15.0 miSW (230°)13.8 mphOvercast
2:00 PM57.0 °F47.0 °F61 %29.98 in15.0 miWSW (250°)15.0 mphOvercast
2:00 PM57.2 °F46.4 °F67 %29.98 in15.0 miWest (260°)13.8 mph20.7 mphOvercast
3:00 PM59.0 °F48.2 °F67 %29.97 in15.0 miWSW (240°)13.8 mphOvercast
4:00 PM59.0 °F48.2 °F67 %29.98 in15.0 miWest (270°)13.8 mph19.6 mphOvercast
5:00 PM59.0 °F46.4 °F63 %29.99 in15.0 miWest (260°)11.5 mph18.4 mphOvercast
6:00 PM59.0 °F46.4 °F63 %30.01 in15.0 miWest (280°)8.1 mphMostly Cloudy
7:00 PM57.2 °F44.6 °F63 %30.02 in15.0 miWest (270°)10.4 mphScattered Clouds
8:00 PM53.0 °F46.0 °F68 %30.03 in15.0 miSW (230°)5.8 mphScattered Clouds
8:00 PM51.8 °F46.4 °F82 %30.03 in15.0 miSW (230°)6.9 mphPartly Cloudy
9:00 PM51.8 °F46.4 °F82 %30.04 in15.0 miWSW (240°)4.6 mphPartly Cloudy
10:00 PM51.8 °F46.4 °F82 %30.04 in15.0 miSW (220°)5.8 mphPartly Cloudy
11:00 PM50.0 °F44.6 °F82 %30.04 in15.0 miWSW (240°)6.9 mphPartly Cloudy
Hourly data recorded from CYUL, located miles away from Montreal, Quebec







STORIES FROM OUR PARTNERS